Location: Unspecified
(33.9239°N, 118.0544°W)
Time: 12:57:00
(UTC-07:00)

Resurs 1-4 Rocket - Visible Passes

Search period start: 26 August 2016 00:00
Search period end: 05 September 2016 00:00
Orbit: 799 x 815 km, 98.4° (Epoch: 26 August)

Date Brightness Start Highest point End Pass type
(mag) Time Alt. Az. Time Alt. Az. Time Alt. Az.
26 Aug 3.6 03:01:22 10° NNE 03:04:42 32° ENE 03:04:42 32° ENE visible
26 Aug 3.5 04:41:56 10° NNW 04:45:46 21° WNW 04:45:46 21° WNW visible
27 Aug 4.4 02:37:33 10° NE 02:39:46 19° ENE 02:39:46 19° ENE visible
27 Aug 2.9 04:16:43 10° N 04:20:51 35° NW 04:20:51 35° NW visible
28 Aug 4.9 02:14:43 10° ENE 02:14:50 10° ENE 02:14:50 10° ENE visible
28 Aug 2.6 03:51:52 10° N 03:55:55 50° NNW 03:55:55 50° NNW visible
29 Aug 3.0 03:27:18 10° NNE 03:30:59 46° NNE 03:30:59 46° NNE visible
29 Aug 4.0 05:09:56 10° NW 05:11:44 12° WNW 05:12:04 12° WNW visible
30 Aug 3.8 03:03:01 10° NNE 03:06:04 30° NE 03:06:04 30° NE visible
30 Aug 3.6 04:43:42 10° NNW 04:47:08 20° WNW 04:47:08 20° WNW visible
31 Aug 4.4 02:39:08 10° NE 02:41:07 18° ENE 02:41:07 18° ENE visible
31 Aug 3.1 04:18:27 10° N 04:22:12 32° NW 04:22:12 32° NW visible
01 Sep 5.0 02:16:10 10° ENE 02:16:11 10° ENE 02:16:11 10° ENE visible
01 Sep 2.8 03:53:34 10° N 03:57:16 43° NNW 03:57:16 43° NNW visible
02 Sep 3.2 03:28:59 10° NNE 03:32:20 40° NNE 03:32:20 40° NNE visible
02 Sep 4.1 05:11:54 10° NW 05:13:23 11° WNW 05:13:24 11° WNW visible
03 Sep 3.9 03:04:40 10° NNE 03:07:23 28° NE 03:07:23 28° NE visible
03 Sep 3.7 04:45:28 10° NNW 04:48:29 19° NW 04:48:29 19° NW visible
04 Sep 4.5 02:40:45 10° NE 02:42:28 17° NE 02:42:28 17° NE visible
04 Sep 3.2 04:20:10 10° N 04:23:33 29° NW 04:23:33 29° NW visible
